TimeGMT,TemperatureF,Dew PointF,Humidity,Sea Level PressureIn,VisibilityMPH,Wind Direction,Wind SpeedMPH,Gust SpeedMPH,PrecipitationIn,Events,Conditions,WindDirDegrees,DateUTC
12:20 AM,32.0,28.4,87,30.04,-9999.0,NE,4.6,-,N/A,,Clear,40,2013-01-13 00:20:00
12:50 AM,30.2,26.6,86,30.04,-9999.0,North,4.6,-,N/A,,Clear,10,2013-01-13 00:50:00
1:20 AM,28.4,26.6,93,30.04,-9999.0,North,4.6,-,N/A,,Clear,10,2013-01-13 01:20:00
1:50 AM,28.4,26.6,93,30.04,6.2,North,4.6,-,N/A,,Unknown,360,2013-01-13 01:50:00
2:20 AM,28.4,26.6,93,30.06,6.2,North,4.6,-,N/A,,Unknown,350,2013-01-13 02:20:00
2:50 AM,28.4,26.6,93,30.06,5.6,North,4.6,-,N/A,,Unknown,360,2013-01-13 02:50:00
3:20 AM,26.6,26.6,100,30.06,4.3,North,5.8,-,N/A,,Unknown,360,2013-01-13 03:20:00
3:50 AM,26.6,26.6,100,30.06,3.7,North,5.8,-,N/A,,Unknown,360,2013-01-13 03:50:00
4:20 AM,28.4,26.6,93,30.06,3.7,North,6.9,-,N/A,,Unknown,350,2013-01-13 04:20:00
4:50 AM,26.6,26.6,100,30.09,3.7,North,4.6,-,N/A,,Unknown,360,2013-01-13 04:50:00
5:20 AM,26.6,26.6,100,30.09,3.1,North,5.8,-,N/A,,Unknown,350,2013-01-13 05:20:00
5:50 AM,26.6,24.8,93,30.09,3.1,North,4.6,-,N/A,,Partly Cloudy,350,2013-01-13 05:50:00
6:20 AM,26.6,26.6,100,30.09,3.1,North,3.5,-,N/A,,Partly Cloudy,350,2013-01-13 06:20:00
6:50 AM,28.4,28.4,100,30.09,3.7,Variable,3.5,-,N/A,Snow,Light Snow,0,2013-01-13 06:50:00
7:20 AM,28.4,28.4,100,30.12,3.1,NW,2.3,-,N/A,,Mostly Cloudy,320,2013-01-13 07:20:00
7:50 AM,28.4,26.6,93,30.12,2.5,Variable,3.5,-,N/A,,Mostly Cloudy,0,2013-01-13 07:50:00
8:20 AM,28.4,26.6,93,30.12,1.6,Variable,2.3,-,N/A,Fog,Mostly Cloudy,0,2013-01-13 08:20:00
8:50 AM,28.4,28.4,100,30.12,1.6,Variable,3.5,-,N/A,,Scattered Clouds,0,2013-01-13 08:50:00
9:20 AM,28.4,28.4,100,30.15,1.2,WNW,3.5,-,N/A,,Scattered Clouds,300,2013-01-13 09:20:00
9:50 AM,30.2,30.2,100,30.15,1.6,NW,4.6,-,N/A,,Mostly Cloudy,320,2013-01-13 09:50:00
10:20 AM,30.2,30.2,100,30.15,2.5,NNW,4.6,-,N/A,,Partly Cloudy,330,2013-01-13 10:20:00
10:50 AM,33.8,32.0,93,30.15,3.7,North,5.8,-,N/A,,Scattered Clouds,350,2013-01-13 10:50:00
11:20 AM,33.8,32.0,93,30.15,3.7,North,5.8,-,N/A,,Partly Cloudy,360,2013-01-13 11:20:00
11:50 AM,35.6,32.0,87,30.15,6.2,North,5.8,-,N/A,,Partly Cloudy,350,2013-01-13 11:50:00
12:20 PM,35.6,32.0,87,30.15,6.2,North,4.6,-,N/A,,Partly Cloudy,360,2013-01-13 12:20:00
12:50 PM,37.4,32.0,81,30.15,6.2,North,4.6,-,N/A,,Partly Cloudy,350,2013-01-13 12:50:00
1:20 PM,37.4,32.0,81,30.12,6.2,North,4.6,-,N/A,,Partly Cloudy,350,2013-01-13 13:20:00
1:50 PM,35.6,32.0,87,30.12,6.2,North,5.8,-,N/A,,Partly Cloudy,360,2013-01-13 13:50:00
2:20 PM,37.4,32.0,81,30.12,6.2,North,4.6,-,N/A,,Partly Cloudy,360,2013-01-13 14:20:00
2:50 PM,37.4,30.2,75,30.12,6.2,North,4.6,-,N/A,,Partly Cloudy,350,2013-01-13 14:50:00
3:20 PM,35.6,30.2,81,30.15,6.2,North,4.6,-,N/A,,Partly Cloudy,350,2013-01-13 15:20:00
3:50 PM,33.8,30.2,87,30.15,5.6,Variable,3.5,-,N/A,,Partly Cloudy,0,2013-01-13 15:50:00
4:20 PM,33.8,30.2,87,30.15,5.6,Variable,2.3,-,N/A,,Partly Cloudy,0,2013-01-13 16:20:00
4:50 PM,32.0,28.4,87,30.15,5.0,Variable,2.3,-,N/A,,Unknown,0,2013-01-13 16:50:00
5:20 PM,30.2,28.4,93,30.15,5.0,Calm,Calm,-,N/A,,Unknown,0,2013-01-13 17:20:00
5:50 PM,32.0,30.2,93,30.15,5.0,Calm,Calm,-,N/A,,Scattered Clouds,0,2013-01-13 17:50:00
6:20 PM,32.0,30.2,93,30.15,5.0,Calm,Calm,-,N/A,,Scattered Clouds,0,2013-01-13 18:20:00
6:50 PM,32.0,30.2,93,30.15,5.0,Calm,Calm,-,N/A,,Partly Cloudy,0,2013-01-13 18:50:00
7:20 PM,32.0,30.2,93,30.15,5.0,Calm,Calm,-,N/A,,Scattered Clouds,0,2013-01-13 19:20:00
7:50 PM,32.0,30.2,93,30.15,4.3,Calm,Calm,-,N/A,Snow,Light Snow,0,2013-01-13 19:50:00
8:20 PM,32.0,30.2,93,30.12,2.8,Calm,Calm,-,N/A,Snow,Light Snow,0,2013-01-13 20:20:00
8:50 PM,32.0,32.0,100,30.12,1.9,SSE,2.3,-,N/A,Snow,Light Snow,150,2013-01-13 20:50:00
9:20 PM,32.0,32.0,100,30.12,1.9,Variable,2.3,-,N/A,Snow,Light Snow,0,2013-01-13 21:20:00
9:50 PM,32.0,32.0,100,30.12,1.2,Variable,2.3,-,N/A,Snow,Light Snow,0,2013-01-13 21:50:00
10:20 PM,32.0,32.0,100,30.09,1.2,Variable,3.5,-,N/A,Snow,Light Snow,0,2013-01-13 22:20:00
10:50 PM,32.0,32.0,100,30.09,-9999.0,Variable,3.5,-,N/A,Snow,Light Snow,0,2013-01-13 22:50:00
11:20 PM,32.0,32.0,100,30.09,1.9,SSW,4.6,-,N/A,Snow,Light Snow,210,2013-01-13 23:20:00
11:50 PM,32.0,32.0,100,30.09,1.7,South,4.6,-,N/A,Rain-Snow,Light Rain,190,2013-01-13 23:50:00